• In Netherlands
  • List of Countries
  • For 7 days
  • Water Temperature
  • Satellite Maps
  • Weather Map
  • Weather Widgets
  • user-avatar
    Login

    Hourly Weather Lubango

    Today, 30 March, Thursday

    Time Temperature Precipitation Wind Pressure Humidity
    00:00 +16°C° 0.2 mm 1 mps 609 mmHg 82%
    01:00 +16°C° 0.2 mm 1 mps 609 mmHg 83%
    02:00 +16°C° 0 mm 1 mps 608 mmHg 83%
    03:00 +15°C° 0 mm 1 mps 608 mmHg 83%
    04:00 +15°C° 0 mm 1 mps 608 mmHg 84%
    05:00 +15°C° 0.1 mm 1 mps 608 mmHg 83%
    06:00 +15°C° 0.1 mm 1 mps 608 mmHg 83%
    07:00 +15°C° 0.1 mm 2 mps 609 mmHg 83%
    08:00 +18°C° 0 mm 2 mps 610 mmHg 73%
    09:00 +20°C° 0 mm 3 mps 611 mmHg 63%
    10:00 +23°C° 0 mm 4 mps 612 mmHg 54%
    11:00 +24°C° 0.2 mm 3 mps 612 mmHg 51%
    12:00 +25°C° 0.2 mm 3 mps 611 mmHg 49%
    13:00 +26°C° 0.2 mm 2 mps 611 mmHg 47%
    14:00 +26°C° 0.7 mm 2 mps 611 mmHg 50%
    15:00 +25°C° 0.7 mm 1 mps 610 mmHg 54%
    16:00 +25°C° 0.7 mm 1 mps 610 mmHg 57%
    17:00 +23°C° 0.3 mm 1 mps 609 mmHg 65%
    18:00 +21°C° 0.3 mm 1 mps 609 mmHg 73%
    19:00 +19°C° 0.3 mm 1 mps 609 mmHg 81%
    20:00 +18°C° 0.4 mm 1 mps 609 mmHg 83%
    21:00 +18°C° 0.4 mm 1 mps 610 mmHg 85%
    22:00 +18°C° 0.4 mm 1 mps 610 mmHg 87%
    23:00 +18°C° 0.2 mm 1 mps 610 mmHg 86%

    Tomorrow, 31 March, Friday

    Time Temperature Precipitation Wind Pressure Humidity
    00:00 +18°C° 0.2 mm 1 mps 610 mmHg 85%
    01:00 +16°C° 0.2 mm 1 mps 609 mmHg 85%
    02:00 +16°C° 0 mm 1 mps 609 mmHg 85%
    03:00 +16°C° 0 mm 1 mps 609 mmHg 85%
    04:00 +15°C° 0 mm 1 mps 608 mmHg 85%
    05:00 +16°C° 0.1 mm 1 mps 609 mmHg 85%
    06:00 +16°C° 0.1 mm 1 mps 609 mmHg 84%
    07:00 +16°C° 0.1 mm 1 mps 609 mmHg 84%
    08:00 +18°C° 0.1 mm 2 mps 610 mmHg 75%
    09:00 +20°C° 0.1 mm 3 mps 611 mmHg 65%
    10:00 +22°C° 0.1 mm 3 mps 612 mmHg 56%
    11:00 +24°C° 0.2 mm 3 mps 612 mmHg 53%
    12:00 +25°C° 0.2 mm 3 mps 612 mmHg 50%
    13:00 +26°C° 0.2 mm 3 mps 612 mmHg 47%
    14:00 +26°C° 0.5 mm 2 mps 611 mmHg 48%
    15:00 +25°C° 0.5 mm 2 mps 611 mmHg 50%
    16:00 +25°C° 0.5 mm 1 mps 610 mmHg 52%
    17:00 +23°C° 0.6 mm 1 mps 610 mmHg 59%
    18:00 +21°C° 0.6 mm 1 mps 609 mmHg 67%
    19:00 +18°C° 0.6 mm 1 mps 609 mmHg 75%
    20:00 +18°C° 0.2 mm 1 mps 609 mmHg 78%
    21:00 +16°C° 0.2 mm 1 mps 610 mmHg 80%
    22:00 +16°C° 0.2 mm 1 mps 610 mmHg 83%
    23:00 +16°C° 0.1 mm 1 mps 610 mmHg 83%

    Day after tomorrow, 1 April, Saturday

    Time Temperature Precipitation Wind Pressure Humidity
    00:00 +15°C° 0.1 mm 1 mps 609 mmHg 84%
    01:00 +15°C° 0.1 mm 1 mps 609 mmHg 84%
    02:00 +15°C° 0 mm 1 mps 609 mmHg 84%
    03:00 +14°C° 0 mm 1 mps 608 mmHg 85%
    04:00 +14°C° 0 mm 1 mps 608 mmHg 85%
    05:00 +15°C° 0 mm 1 mps 608 mmHg 84%
    06:00 +15°C° 0 mm 1 mps 609 mmHg 83%
    07:00 +16°C° 0 mm 1 mps 609 mmHg 82%
    08:00 +18°C° 0 mm 2 mps 611 mmHg 72%
    09:00 +20°C° 0 mm 2 mps 612 mmHg 63%
    10:00 +24°C° 0 mm 3 mps 613 mmHg 53%
    11:00 +25°C° 0.3 mm 3 mps 613 mmHg 51%
    12:00 +25°C° 0.3 mm 3 mps 612 mmHg 48%
    13:00 +26°C° 0.3 mm 3 mps 612 mmHg 46%
    14:00 +26°C° 0.7 mm 2 mps 611 mmHg 48%
    15:00 +26°C° 0.7 mm 2 mps 611 mmHg 49%
    16:00 +25°C° 0.7 mm 1 mps 610 mmHg 51%
    17:00 +23°C° 0.6 mm 1 mps 610 mmHg 59%
    18:00 +20°C° 0.6 mm 1 mps 609 mmHg 66%
    19:00 +18°C° 0.6 mm 1 mps 609 mmHg 74%
    20:00 +18°C° 0 mm 1 mps 609 mmHg 77%
    21:00 +16°C° 0 mm 1 mps 609 mmHg 80%
    22:00 +16°C° 0 mm 1 mps 609 mmHg 83%
    23:00 +15°C° 0 mm 1 mps 609 mmHg 84%

    2 April, Sunday

    Time Temperature Precipitation Wind Pressure Humidity
    00:00 +15°C° 0 mm 1 mps 609 mmHg 84%
    01:00 +15°C° 0 mm 1 mps 608 mmHg 85%
    02:00 +14°C° 0 mm 1 mps 608 mmHg 85%
    03:00 +14°C° 0 mm 1 mps 608 mmHg 85%
    04:00 +14°C° 0 mm 1 mps 607 mmHg 84%
    05:00 +14°C° 0 mm 1 mps 608 mmHg 82%
    06:00 +15°C° 0 mm 1 mps 608 mmHg 79%
    07:00 +15°C° 0 mm 2 mps 609 mmHg 76%
    08:00 +18°C° 0 mm 2 mps 610 mmHg 65%
    09:00 +20°C° 0 mm 3 mps 611 mmHg 53%
    10:00 +24°C° 0 mm 3 mps 613 mmHg 41%
    11:00 +25°C° 0 mm 3 mps 612 mmHg 37%
    12:00 +26°C° 0 mm 3 mps 612 mmHg 33%
    13:00 +28°C° 0 mm 3 mps 612 mmHg 30%
    14:00 +27°C° 0 mm 2 mps 611 mmHg 30%
    15:00 +27°C° 0 mm 2 mps 611 mmHg 30%
    16:00 +27°C° 0 mm 2 mps 610 mmHg 31%
    17:00 +24°C° 0 mm 2 mps 609 mmHg 36%
    18:00 +21°C° 0 mm 1 mps 609 mmHg 40%
    19:00 +18°C° 0 mm 1 mps 608 mmHg 45%
    20:00 +17°C° 0 mm 2 mps 608 mmHg 45%
    21:00 +16°C° 0 mm 2 mps 608 mmHg 45%
    22:00 +16°C° 0 mm 2 mps 608 mmHg 45%
    23:00 +15°C° 0 mm 2 mps 608 mmHg 46%

    3 April, Monday

    Time Temperature Precipitation Wind Pressure Humidity
    00:00 +15°C° 0 mm 2 mps 608 mmHg 48%
    01:00 +15°C° 0 mm 2 mps 607 mmHg 49%
    02:00 +14°C° 0 mm 2 mps 607 mmHg 49%
    03:00 +14°C° 0 mm 2 mps 607 mmHg 48%
    04:00 +14°C° 0 mm 2 mps 607 mmHg 48%
    05:00 +14°C° 0 mm 2 mps 607 mmHg 49%
    06:00 +14°C° 0 mm 2 mps 608 mmHg 51%
    07:00 +14°C° 0 mm 2 mps 608 mmHg 52%
    08:00 +17°C° 0 mm 3 mps 609 mmHg 45%
    09:00 +20°C° 0 mm 4 mps 611 mmHg 38%
    10:00 +23°C° 0 mm 4 mps 612 mmHg 31%
    11:00 +25°C° 0 mm 4 mps 612 mmHg 29%
    12:00 +26°C° 0 mm 4 mps 611 mmHg 27%
    13:00 +27°C° 0 mm 4 mps 611 mmHg 25%
    14:00 +27°C° 0 mm 3 mps 611 mmHg 27%
    15:00 +27°C° 0 mm 3 mps 610 mmHg 28%
    16:00 +27°C° 0 mm 2 mps 610 mmHg 29%
    17:00 +24°C° 0 mm 2 mps 609 mmHg 37%
    18:00 +21°C° 0 mm 1 mps 608 mmHg 44%
    19:00 +18°C° 0 mm 1 mps 608 mmHg 52%
    20:00 +16°C° 0 mm 1 mps 608 mmHg 53%
    21:00 +16°C° 0 mm 1 mps 608 mmHg 54%
    22:00 +15°C° 0 mm 1 mps 608 mmHg 55%
    23:00 +15°C° 0 mm 1 mps 608 mmHg 56%

    4 April, Tuesday

    Time Temperature Precipitation Wind Pressure Humidity
    00:00 +15°C° 0 mm 1 mps 608 mmHg 57%
    01:00 +14°C° 0 mm 1 mps 608 mmHg 59%
    02:00 +14°C° 0 mm 2 mps 607 mmHg 59%
    03:00 +14°C° 0 mm 2 mps 607 mmHg 59%
    04:00 +14°C° 0 mm 2 mps 607 mmHg 59%
    05:00 +14°C° 0 mm 2 mps 607 mmHg 59%
    06:00 +14°C° 0 mm 2 mps 608 mmHg 58%
    07:00 +15°C° 0 mm 2 mps 608 mmHg 58%
    08:00 +18°C° 0 mm 3 mps 610 mmHg 50%
    09:00 +21°C° 0 mm 3 mps 611 mmHg 43%
    10:00 +25°C° 0 mm 4 mps 612 mmHg 35%
    11:00 +26°C° 0 mm 3 mps 611 mmHg 32%
    12:00 +27°C° 0 mm 3 mps 611 mmHg 30%
    13:00 +28°C° 0 mm 3 mps 611 mmHg 27%
    14:00 +28°C° 0 mm 3 mps 610 mmHg 27%
    15:00 +27°C° 0 mm 2 mps 610 mmHg 28%
    16:00 +27°C° 0 mm 2 mps 610 mmHg 29%
    17:00 +24°C° 0 mm 1 mps 609 mmHg 36%
    18:00 +21°C° 0 mm 1 mps 608 mmHg 43%
    19:00 +16°C° 0 mm 1 mps 607 mmHg 51%
    20:00 +16°C° 0 mm 1 mps 607 mmHg 52%
    21:00 +15°C° 0 mm 1 mps 607 mmHg 53%
    22:00 +15°C° 0 mm 1 mps 608 mmHg 54%
    23:00 +14°C° 0 mm 1 mps 607 mmHg 55%
    Show more